GLD1794 LPPI-LPLA

Flight info

Callsign GLD1794
Flight time 0h 21m
Altitude 15000
Route GORZI DCT LIZHA DCT CUDLY
Aircraft A320/M-SDE3FGHIRWY/LB1

Departure

Time 2026-05-09 10:32
Airport Pico Airport (LPPI)

Arrival

Time 2026-05-09 10:53
Airport Lajes Airport (LPLA)
Time Latitude Longitude Altitude Speed Heading
2026-05-09 10:12 38.55266 -28.44258 146 ft 0 kts 306°
2026-05-09 10:28 38.55279 -28.44270 143 ft 7 kts 335°
2026-05-09 10:29 38.55336 -28.44282 142 ft 9 kts 340°
2026-05-09 10:29 38.55387 -28.44348 144 ft 13 kts 304°
2026-05-09 10:29 38.55401 -28.44467 144 ft 15 kts 263°
2026-05-09 10:29 38.55387 -28.44609 143 ft 17 kts 263°
2026-05-09 10:30 38.55369 -28.44768 142 ft 19 kts 261°
2026-05-09 10:30 38.55355 -28.44922 143 ft 16 kts 264°
2026-05-09 10:30 38.55342 -28.45049 145 ft 9 kts 248°
2026-05-09 10:30 38.55320 -28.45100 144 ft 5 kts 301°
2026-05-09 10:31 38.55335 -28.45094 141 ft 2 kts 57°
2026-05-09 10:31 38.55340 -28.45063 142 ft 0 kts 82°
2026-05-09 10:31 38.55348 -28.44989 139 ft 41 kts 82°
2026-05-09 10:32 38.55421 -28.44265 146 ft 119 kts 82°
2026-05-09 10:32 38.55550 -28.42979 260 ft 162 kts 74°
2026-05-09 10:32 38.55690 -28.41554 980 ft 161 kts 72°
2026-05-09 10:32 38.56233 -28.40404 1773 ft 148 kts 30°
2026-05-09 10:33 38.57170 -28.39939 2365 ft 148 kts
2026-05-09 10:33 38.58276 -28.40038 2678 ft 172 kts 353°
2026-05-09 10:33 38.59552 -28.40205 3014 ft 197 kts 354°
2026-05-09 10:33 38.60997 -28.40391 3487 ft 221 kts 353°
2026-05-09 10:34 38.62575 -28.40590 4219 ft 233 kts 354°
2026-05-09 10:34 38.65856 -28.40991 6104 ft 241 kts 354°
2026-05-09 10:34 38.67546 -28.40997 6974 ft 247 kts
2026-05-09 10:35 38.69178 -28.40234 7842 ft 256 kts 27°
2026-05-09 10:35 38.70529 -28.38693 8739 ft 268 kts 47°
2026-05-09 10:35 38.71365 -28.36496 9623 ft 284 kts 70°
2026-05-09 10:35 38.71448 -28.33903 10420 ft 304 kts 92°
2026-05-09 10:36 38.71079 -28.31121 10728 ft 329 kts 94°
2026-05-09 10:36 38.70650 -28.28139 10962 ft 353 kts 95°
2026-05-09 10:36 38.70180 -28.24982 11431 ft 366 kts 95°
2026-05-09 10:36 38.69692 -28.21749 12083 ft 373 kts 95°
2026-05-09 10:37 38.69197 -28.18455 12755 ft 380 kts 95°
2026-05-09 10:37 38.68699 -28.15108 13412 ft 386 kts 94°
2026-05-09 10:37 38.68199 -28.11704 14083 ft 392 kts 94°
2026-05-09 10:37 38.67701 -28.08287 14683 ft 398 kts 94°
2026-05-09 10:38 38.67193 -28.04779 15070 ft 403 kts 94°
2026-05-09 10:38 38.66678 -28.01244 15166 ft 408 kts 94°
2026-05-09 10:38 38.66149 -27.97578 15196 ft 429 kts 94°
2026-05-09 10:38 38.65598 -27.93775 15178 ft 436 kts 94°
2026-05-09 10:39 38.65034 -27.89951 15179 ft 438 kts 95°
2026-05-09 10:39 38.64463 -27.86120 15178 ft 438 kts 95°
2026-05-09 10:39 38.63890 -27.82293 15168 ft 438 kts 95°
2026-05-09 10:39 38.63316 -27.78461 15169 ft 438 kts 95°
2026-05-09 10:40 38.62746 -27.74634 15175 ft 438 kts 95°
2026-05-09 10:40 38.62175 -27.70801 15156 ft 437 kts 95°
2026-05-09 10:40 38.61799 -27.68277 15157 ft 437 kts 95°
2026-05-09 10:40 38.61228 -27.64450 15157 ft 437 kts 95°
2026-05-09 10:41 38.60656 -27.60629 15163 ft 438 kts 95°
2026-05-09 10:41 38.60082 -27.56807 15154 ft 438 kts 95°
2026-05-09 10:41 38.59506 -27.53003 15024 ft 430 kts 95°
2026-05-09 10:41 38.58940 -27.49292 14598 ft 422 kts 95°
2026-05-09 10:42 38.58383 -27.45611 13980 ft 421 kts 96°
2026-05-09 10:42 38.57829 -27.41947 13400 ft 416 kts 96°
2026-05-09 10:42 38.57279 -27.38334 12691 ft 414 kts 96°
2026-05-09 10:42 38.56735 -27.34766 12240 ft 405 kts 96°
2026-05-09 10:43 38.56200 -27.31257 11587 ft 398 kts 96°
2026-05-09 10:43 38.55676 -27.27842 10695 ft 385 kts 96°
2026-05-09 10:43 38.55172 -27.24597 10387 ft 357 kts 96°
2026-05-09 10:43 38.54701 -27.21608 10229 ft 330 kts 95°
2026-05-09 10:44 38.54269 -27.18863 10213 ft 301 kts 95°
2026-05-09 10:44 38.53875 -27.16331 10236 ft 285 kts 94°
2026-05-09 10:44 38.53501 -27.13860 10177 ft 282 kts 94°
2026-05-09 10:44 38.53133 -27.11403 10122 ft 281 kts 94°
2026-05-09 10:45 38.52762 -27.08946 9703 ft 282 kts 94°
2026-05-09 10:46 38.52661 -26.99481 8035 ft 261 kts 79°
2026-05-09 10:46 38.52759 -26.97177 7620 ft 258 kts 80°
2026-05-09 10:46 38.52858 -26.94895 7222 ft 257 kts 80°
2026-05-09 10:46 38.52963 -26.92620 6817 ft 255 kts 78°
2026-05-09 10:47 38.53484 -26.90563 6432 ft 237 kts 47°
2026-05-09 10:47 38.54696 -26.89256 5904 ft 226 kts 19°
2026-05-09 10:47 38.56198 -26.88974 5360 ft 216 kts 350°
2026-05-09 10:47 38.57573 -26.89698 5026 ft 218 kts 326°
2026-05-09 10:48 38.58764 -26.90923 4703 ft 219 kts 323°
2026-05-09 10:48 38.59935 -26.92150 4366 ft 213 kts 323°
2026-05-09 10:48 38.61048 -26.93310 4070 ft 201 kts 323°
2026-05-09 10:48 38.62104 -26.94407 3786 ft 191 kts 323°
2026-05-09 10:49 38.63128 -26.95471 3508 ft 189 kts 323°
2026-05-09 10:49 38.64139 -26.96522 3234 ft 187 kts 323°
2026-05-09 10:49 38.65130 -26.97553 2957 ft 179 kts 323°
2026-05-09 10:49 38.66068 -26.98530 2732 ft 168 kts 323°
2026-05-09 10:50 38.66926 -26.99424 2470 ft 150 kts 324°
2026-05-09 10:50 38.67691 -27.00221 2256 ft 136 kts 324°
2026-05-09 10:50 38.68409 -27.00968 2074 ft 131 kts 325°
2026-05-09 10:50 38.69106 -27.01693 1899 ft 130 kts 325°
2026-05-09 10:51 38.69808 -27.02425 1701 ft 130 kts 325°
2026-05-09 10:51 38.70506 -27.03152 1509 ft 129 kts 325°
2026-05-09 10:51 38.71191 -27.03884 1316 ft 128 kts 323°
2026-05-09 10:51 38.71866 -27.04608 1149 ft 125 kts 324°
2026-05-09 10:52 38.72543 -27.05291 1016 ft 124 kts 324°
2026-05-09 10:52 38.73217 -27.05991 796 ft 126 kts 323°
2026-05-09 10:52 38.73899 -27.06694 603 ft 126 kts 322°
2026-05-09 10:52 38.74567 -27.07404 401 ft 125 kts 321°
2026-05-09 10:53 38.75254 -27.08108 222 ft 126 kts 321°
2026-05-09 10:53 38.75878 -27.08758 184 ft 102 kts 320°
2026-05-09 10:53 38.76317 -27.09218 178 ft 57 kts 321°
2026-05-09 10:53 38.76484 -27.09396 179 ft 17 kts 319°
2026-05-09 10:54 38.76577 -27.09433 179 ft 15 kts 40°
2026-05-09 10:54 38.76640 -27.09321 178 ft 12 kts 84°
2026-05-09 10:54 38.76583 -27.09249 178 ft 13 kts 140°
2026-05-09 10:54 38.76506 -27.09171 178 ft 15 kts 140°
2026-05-09 10:55 38.76425 -27.09085 178 ft 15 kts 143°
2026-05-09 10:55 38.76328 -27.09064 178 ft 14 kts 183°
2026-05-09 10:55 38.76241 -27.09071 179 ft 11 kts 184°
2026-05-09 10:55 38.76173 -27.09060 180 ft 10 kts 153°
2026-05-09 10:56 38.76102 -27.08994 180 ft 16 kts 142°
2026-05-09 10:56 38.76009 -27.08900 181 ft 16 kts 150°
2026-05-09 10:56 38.75903 -27.08896 180 ft 16 kts 185°
2026-05-09 10:56 38.75795 -27.08909 179 ft 15 kts 185°
2026-05-09 10:57 38.75697 -27.08891 179 ft 14 kts 148°
2026-05-09 10:57 38.75619 -27.08813 178 ft 15 kts 141°
2026-05-09 10:57 38.75565 -27.08757 178 ft 4 kts 141°
2026-05-09 10:57 38.75564 -27.08756 178 ft 0 kts 141°